Location: B?ogocice
(50.2413°N, 20.2361°E)
Time: 23:55:31
(UTC+00:00)

Cosmos 921 Rocket - Pass Details

Date: 15 June 2024
Orbit: 568 x 625 km, 75.8° (Epoch: 18 July)

Event Time Altitude Azimuth Distance (km) Brightness Sun altitude
Rises 00:40:15 0° 342° (NNW) 2,835 7.2 -11.7°
Reaches altitude 10° 00:42:32 10° 346° (NNW) 1,920 6.3 -11.6°
Maximum altitude 00:46:44 55° 65° (ENE) 703 3.7 -11.2°
Drops below altitude 10° 00:50:50 10° 144° (SE) 1,878 5.3 -10.9°
Sets 00:53:03 0° 149° (SSE) 2,766 6.1 -10.7°
